STARLINK T (59939 NORAD) Tracking and Keplerian Element Data

This shows tracking and keplerian element data for the satellite.

Feedback or suggestion? Click here.




ElementValue
Catalog59939
NameSTARLINK T
Epoch Orbit233
Epoch Day160.16667824
Epoch Year2024
RAAN22.4047
Inclination43.0021
Eccentricity0.0001982
Argument of Perigee279.74
Mean Anonmoly173.3673
Mean Motion15.93323781
Decay Rate-0.01050636
L11 59939U 24106T 24160.16667824 -.01050636 33503-3 -28474-2 0 9998
L22 59939 43.0021 22.4047 0001982 279.7400 173.3673 15.93323781 2335



Live tracking and technical data element details for STARLINK T (NORAD 59939). STARLINK T can be tracked NOW for your location showing map with azimuth and elevation plus other details from your city location.







IsCatalogInMostPopularTable: catalog: 59939, numindb: 10
Update: records affected: 1



GetName: 59939 STARLINK T

Hit Count: updated at: Wed, 24 Jul 2024 23:33:32 GMT